Search the data

BODC Cruise Metadata Report for RV Endeavor cruise EN598

Introduction

This report collates information from the BODC cruise inventory and oceanographic databases. It presents

Cruise Inventory Information

Long name RV Endeavor cruise EN598
Short name EN598
Objectives and Narrative Objectives

1. Service (recover and redeploy) 4 deep-sea moorings located off the eastern Bahamas along latitude 26.5N.
2. Retrieve data from 6 pressure-equipped inverted echo sounders (PIES) by underwater acoustic telemetry, and recover and redeploy two PIES, including one with an experimental data-pod.
3. Conduct CTD (Conductivity-Temperature-Depth) and Lowered ADCP (Acoustic Doppler Current Profiler) sections across the Florida Current at 27N, the
Northwest Providence Channel, and along the 26.5N RAPID-MOCHA western boundary line east of Abaco, Bahamas.
4. Perform two additional deep water CTD casts to calibrate moored instrumentation.
5. Conduct a vessel-mounted Acoustic Doppler Current profiler (ADCP) survey of the Antilles Current system, as time permits.
Ship RV Endeavor
Departure Port Port Everglades, United States
Departure Date 2017-05-08
Arrival Port Port Everglades, United States
Arrival Date 2017-05-24
Principal Scientist(s) William E Johns (Rosenstiel School of Marine and Atmospheric Science)
Responsible Organisation University of Oxford Department of Earth Sciences, Agri-Food and Biosciences Institute
Associated Project(s) Meridional Overturning Circulation and Heatflux Array (MOCHA)
IHB Sea Areas Visited North West Atlantic Ocean (limit 40W)
Marsden Squares Visited 79;4/80;3/80;4
Work Area Description
Work Area Bounding Polygon 25N,80W; 30N,80W; 30N,65W; 25N,65W; 25N,80W
Southern Limit 25N
Northern Limit 30N
Western Limit 80W
Eastern Limit 65W

Cruise Inventory Datasets

No information on datasets is currently available for this cruise

Cruise Inventory Mooring/Buoy Operations

No information on datasets is currently available

Summary of BODC Data Holdings for the Cruise

National Oceanographic Database

Summary

# Series Instrument Description Parameters
19 Acoustic current meter Date and time
Horizontal velocity of the water column (currents)
Moored instrument depth
Reference numbers
Temperature of the water column
3 Acoustic doppler current profiler Date and time
Horizontal velocity of the water column (currents)
Reference numbers
Vertical spatial coordinates
44 CTD/STD cast Density of the water column
Dissolved oxygen parameters in the water column
Reference numbers
Salinity of the water column
Temperature of the water column
Vertical spatial coordinates

Note: Parameter terms are taken from the BODC Parameter Discovery Vocabulary XML (SKOS)

Full List

BODC Reference Instrument Description Date/Time Location  
1967403 Acoustic doppler current profiler 2017-05-21 17:00Z to 2018-11-30 12:00Z 26° 30' N, 76° 50' W Click for more
1967415 Acoustic doppler current profiler 2017-05-20 18:00Z to 2017-12-04 17:00Z 26° 29' N, 76° 29' W Click for more
1967427 Acoustic doppler current profiler 2017-05-18 18:00Z to 2018-11-26 11:00Z 26° 30' N, 76° 6' W Click for more
1972718 Acoustic current meter 2017-05-21 17:00Z to 2018-11-30 12:40Z 26° 30' N, 76° 50' W Click for more
1972731 Acoustic current meter 2017-05-21 17:00Z to 2018-11-30 12:40Z 26° 30' N, 76° 50' W Click for more
1972743 Acoustic current meter 2017-05-21 17:00Z to 2018-11-30 12:40Z 26° 30' N, 76° 50' W Click for more
1972755 Acoustic current meter 2017-05-20 17:00Z to 2018-11-27 19:40Z 26° 29' N, 76° 29' W Click for more
1972767 Acoustic current meter 2017-05-20 17:00Z to 2018-11-27 19:40Z 26° 29' N, 76° 29' W Click for more
1972779 Acoustic current meter 2017-05-20 17:00Z to 2018-11-27 19:40Z 26° 29' N, 76° 29' W Click for more
1972780 Acoustic current meter 2017-05-20 17:00Z to 2018-11-27 19:40Z 26° 29' N, 76° 29' W Click for more
1972792 Acoustic current meter 2017-05-20 17:00Z to 2018-11-27 19:40Z 26° 29' N, 76° 29' W Click for more
1972811 Acoustic current meter 2017-05-20 17:00Z to 2018-11-27 19:40Z 26° 29' N, 76° 29' W Click for more
1972823 Acoustic current meter 2017-05-20 17:00Z to 2018-11-27 19:40Z 26° 29' N, 76° 29' W Click for more
1972835 Acoustic current meter 2017-05-20 17:00Z to 2018-11-27 19:40Z 26° 29' N, 76° 29' W Click for more
1972847 Acoustic current meter 2017-05-18 18:00Z to 2018-11-26 11:40Z 26° 30' N, 76° 6' W Click for more
1972859 Acoustic current meter 2017-05-18 18:00Z to 2018-11-26 11:40Z 26° 30' N, 76° 6' W Click for more
1972860 Acoustic current meter 2017-05-18 18:00Z to 2018-11-26 11:40Z 26° 30' N, 76° 6' W Click for more
1972872 Acoustic current meter 2017-05-18 18:00Z to 2018-11-26 11:40Z 26° 30' N, 76° 6' W Click for more
1972884 Acoustic current meter 2017-05-18 18:00Z to 2018-11-26 11:40Z 26° 30' N, 76° 6' W Click for more
1972896 Acoustic current meter 2017-05-18 18:00Z to 2018-11-26 11:40Z 26° 30' N, 76° 6' W Click for more
1972903 Acoustic current meter 2017-05-18 18:00Z to 2018-11-26 11:40Z 26° 30' N, 76° 6' W Click for more
1972915 Acoustic current meter 2017-05-18 18:00Z to 2018-11-26 11:40Z 26° 30' N, 76° 6' W Click for more
1973501 CTD/STD cast 2017-05-08 21:48Z 26° 3' N, 78° 51' W Click for more
1973513 CTD/STD cast 2017-05-08 23:29Z 26° 9' N, 78° 48' W Click for more
1973525 CTD/STD cast 2017-05-09 00:59Z 26° 14' N, 78° 45' W Click for more
1973537 CTD/STD cast 2017-05-09 02:30Z 26° 20' N, 78° 42' W Click for more
1973549 CTD/STD cast 2017-05-09 03:52Z 26° 26' N, 78° 40' W Click for more
1973550 CTD/STD cast 2017-05-09 16:32Z 25° 57' N, 76° 54' W Click for more
1973562 CTD/STD cast 2017-05-09 23:53Z 26° 31' N, 76° 52' W Click for more
1973574 CTD/STD cast 2017-05-10 01:16Z 26° 31' N, 76° 50' W Click for more
1973586 CTD/STD cast 2017-05-10 05:03Z 26° 31' N, 76° 45' W Click for more
1973598 CTD/STD cast 2017-05-10 10:12Z 26° 30' N, 76° 39' W Click for more
1973605 CTD/STD cast 2017-05-10 15:24Z 26° 30' N, 76° 34' W Click for more
1973617 CTD/STD cast 2017-05-10 20:53Z 26° 30' N, 76° 28' W Click for more
1973629 CTD/STD cast 2017-05-11 01:45Z 26° 30' N, 76° 20' W Click for more
1973630 CTD/STD cast 2017-05-11 06:35Z 26° 30' N, 76° 12' W Click for more
1973642 CTD/STD cast 2017-05-11 11:18Z 26° 30' N, 76° 4' W Click for more
1973654 CTD/STD cast 2017-05-11 15:58Z 26° 30' N, 75° 53' W Click for more
1973666 CTD/STD cast 2017-05-11 20:36Z 26° 29' N, 75° 41' W Click for more
1973678 CTD/STD cast 2017-05-12 01:45Z 26° 28' N, 75° 29' W Click for more
1973691 CTD/STD cast 2017-05-12 06:36Z 26° 28' N, 75° 18' W Click for more
1973709 CTD/STD cast 2017-05-12 11:19Z 26° 28' N, 75° 5' W Click for more
1973710 CTD/STD cast 2017-05-12 16:15Z 26° 29' N, 74° 48' W Click for more
1973722 CTD/STD cast 2017-05-12 21:24Z 26° 29' N, 74° 31' W Click for more
1973734 CTD/STD cast 2017-05-13 02:13Z 26° 30' N, 74° 14' W Click for more
1973746 CTD/STD cast 2017-05-13 07:31Z 26° 29' N, 73° 52' W Click for more
1973758 CTD/STD cast 2017-05-13 12:57Z 26° 29' N, 73° 30' W Click for more
1973771 CTD/STD cast 2017-05-13 18:20Z 26° 29' N, 73° 7' W Click for more
1973783 CTD/STD cast 2017-05-13 23:46Z 26° 29' N, 72° 45' W Click for more
1973795 CTD/STD cast 2017-05-14 05:17Z 26° 30' N, 72° 22' W Click for more
1973802 CTD/STD cast 2017-05-14 10:44Z 26° 30' N, 71° 58' W Click for more
1973814 CTD/STD cast 2017-05-14 17:04Z 26° 30' N, 71° 29' W Click for more
1973826 CTD/STD cast 2017-05-14 23:03Z 26° 29' N, 70° 59' W Click for more
1973838 CTD/STD cast 2017-05-15 05:10Z 26° 28' N, 70° 29' W Click for more
1973851 CTD/STD cast 2017-05-15 11:36Z 26° 30' N, 70° 0' W Click for more
1973863 CTD/STD cast 2017-05-15 17:42Z 26° 30' N, 69° 29' W Click for more
1973875 CTD/STD cast 2017-05-19 20:55Z 26° 30' N, 76° 28' W Click for more
1973887 CTD/STD cast 2017-05-23 12:32Z 27° 0' N, 79° 12' W Click for more
1973899 CTD/STD cast 2017-05-23 13:41Z 27° 0' N, 79° 16' W Click for more
1973906 CTD/STD cast 2017-05-23 15:19Z 27° 0' N, 79° 22' W Click for more
1973918 CTD/STD cast 2017-05-23 16:44Z 27° 0' N, 79° 30' W Click for more
1973931 CTD/STD cast 2017-05-23 18:18Z 27° 0' N, 79° 37' W Click for more
1973943 CTD/STD cast 2017-05-23 19:40Z 27° 1' N, 79° 40' W Click for more
1973955 CTD/STD cast 2017-05-23 21:15Z 27° 1' N, 79° 47' W Click for more
1973967 CTD/STD cast 2017-05-23 22:37Z 27° 1' N, 79° 51' W Click for more
1973979 CTD/STD cast 2017-05-24 00:12Z 27° 0' N, 79° 55' W Click for more

Project Database

No data currently held for this cruise in the BODC Project Database

References

Track Charts

No track charts currently available

Reports

Cruise Report